This is the latest recevied weather packets stored in our database for station/object KJ6APE. If no packets are shown the sender has not sent any weather packets the latest 10 day(s).
| Time | Temp. | Humidity | Pressure | Rain* | Wind** | Luminosity | Snow |
|---|---|---|---|---|---|---|---|
| 1777950925 | 13.89° C | 76% | 1014.9 hPa | 0 mm | - | 0 W/m² | - |
| 1777950621 | 13.89° C | 75% | 1014.8 hPa | 0 mm | - | 0 W/m² | - |
| 1777950318 | 13.89° C | 75% | 1014.8 hPa | 0 mm | - | 0 W/m² | - |
| 1777950015 | 13.89° C | 74% | 1014.8 hPa | 0 mm | - | 1 W/m² | - |
| 1777949710 | 13.89° C | 73% | 1014.9 hPa | 0 mm | - | 2 W/m² | - |
| 1777949410 | 13.89° C | 73% | 1015 hPa | 0 mm | - | 4 W/m² | - |
| 1777949106 | 13.89° C | 72% | 1014.9 hPa | 0 mm | - | 6 W/m² | - |
| 1777948803 | 13.89° C | 73% | 1014.9 hPa | 0 mm | - | 9 W/m² | - |
| 1777948500 | 14.44° C | 72% | 1014.9 hPa | 0 mm | - | 11 W/m² | - |
| 1777948197 | 14.44° C | 71% | 1014.9 hPa | 0 mm | - | 14 W/m² | - |
| 1777947895 | 14.44° C | 70% | 1015 hPa | 0 mm | - | 17 W/m² | - |
| 1777947592 | 14.44° C | 71% | 1014.9 hPa | 0 mm | - | 22 W/m² | - |
| 1777947288 | 15° C | 71% | 1015 hPa | 0 mm | - | 23 W/m² | - |
| 1777946984 | 15° C | 70% | 1014.8 hPa | 0 mm | - | 23 W/m² | - |
| 1777946679 | 15° C | 70% | 1014.9 hPa | 0 mm | - | 35 W/m² | - |
| 1777946377 | 15° C | 69% | 1015 hPa | 0 mm | - | 45 W/m² | - |
| 1777946074 | 15° C | 69% | 1015 hPa | 0 mm | - | 52 W/m² | - |
| 1777945771 | 15° C | 69% | 1014.8 hPa | 0 mm | - | 55 W/m² | - |
| 1777945468 | 15° C | 68% | 1015.1 hPa | 0 mm | - | 55 W/m² | - |
| 1777945165 | 15° C | 68% | 1015.1 hPa | 0 mm | - | 45 W/m² | - |
| 1777944862 | 15° C | 67% | 1015.3 hPa | 0 mm | - | 34 W/m² | - |
| 1777944560 | 15.56° C | 66% | 1015.3 hPa | 0 mm | - | 33 W/m² | - |
| 1777944258 | 15.56° C | 65% | 1015.4 hPa | 0 mm | - | 41 W/m² | - |
| 1777943954 | 16.11° C | 66% | 1015.2 hPa | 0 mm | - | 48 W/m² | - |
| 1777943650 | 16.11° C | 66% | 1014.9 hPa | 0 mm | - | 72 W/m² | - |
* Rain latest hour (hover to see other rain measurements)
** Current wind speed in m/s (hover to see current wind gust speed)